This demonstration page uses our WeatherBlox Daily Observations layout. Learn more.

Left ArrowRight Arrow

38.20091, -84.87328

Hourly Observations for February 26, 2018

Temp ( °F °C ) Dew Point ( °F °C ) Humidity (%) Winds ( mph kmh ) Pressure ( in mb ) Visibility ( mi km ) Precip ( " mm )
12:53 am 00:53 Clear 41 5 36 2.2 82 82 Calm 30.19 1022 10 16 0.00 0.00
1:53 am 01:53 Mostly Cloudy 40 4.4 36 2.2 86 86 NW 3 6 30.19 1022 10 16 0.00 0.00
2:53 am 02:53 Cloudy 40 4.4 37 2.8 89 89 NNW 3 6 30.17 1022 10 16 0.00 0.00
3:53 am 03:53 Cloudy 43 6.1 34 1.1 71 71 Calm 30.17 1022 10 16 0.00 0.00
4:53 am 04:53 Cloudy 42 5.6 34 1.1 73 73 Calm 30.19 1023 10 16 0.00 0.00
5:53 am 05:53 Cloudy 41 5 33 0.6 73 73 N 6 9 30.21 1023 10 16 0.00 0.00
6:53 am 06:53 Clear 41 5 31 -0.6 67 67 NNE 3 6 30.23 1024 10 16 0.00 0.00
7:53 am 07:53 Mostly Sunny 40 4.4 31 -0.6 70 70 N 3 6 30.26 1025 10 16 0.00 0.00
8:53 am 08:53 Sunny 43 6.1 33 0.6 68 68 NNE 5 7 30.29 1026 10 16 0.00 0.00
9:53 am 09:53 Sunny 46 7.8 27 -2.8 47 47 NE 9 15 30.30 1026 10 16 0.00 0.00
10:53 am 10:53 Sunny 50 10 26 -3.3 39 39 E 8 13 30.30 1026 10 16 0.00 0.00
11:53 am 11:53 Sunny 52 11.1 25 -3.9 35 35 NE 6 9 30.31 1026 10 16 0.00 0.00
12:53 pm 12:53 Sunny 54 12.2 22 -5.6 29 29 VRB 3 6 30.29 1026 10 16 0.00 0.00
1:53 pm 13:53 Sunny 54 12.2 21 -6.1 28 28 ENE 5 7 30.28 1026 10 16 0.00 0.00
2:53 pm 14:53 Sunny 57 13.9 20 -6.7 24 24 Calm 30.28 1025 10 16 0.00 0.00
3:53 pm 15:53 Sunny 57 13.9 20 -6.7 24 24 VRB 5 7 30.28 1025 10 16 0.00 0.00
4:53 pm 16:53 Sunny 57 13.9 19 -7.2 23 23 E 5 7 30.28 1025 10 16 0.00 0.00
5:53 pm 17:53 Sunny 56 13.3 20 -6.7 24 24 Calm 30.29 1026 10 16 0.00 0.00
6:53 pm 18:53 Clear 53 11.7 23 -5 31 31 SE 3 6 30.30 1026 10 16 0.00 0.00
7:53 pm 19:53 Clear 43 6.1 28 -2.2 56 56 Calm 30.32 1027 8 13 0.00 0.00
8:53 pm 20:53 Clear 40 4.4 29 -1.7 65 65 Calm 30.33 1027 10 16 0.00 0.00
9:53 pm 21:53 Clear 38 3.3 28 -2.2 68 68 Calm 30.34 1027 9 14 0.00 0.00
10:53 pm 22:53 Hazy 37 2.8 28 -2.2 70 70 Calm 30.35 1028 6 10 0.00 0.00
11:53 pm 23:53 Clear 34 1.1 27 -2.8 76 76 Calm 30.35 1028 10 16 0.00 0.00

Powered by AerisWeather